Home   Weather   Augsburg   Past weeks

Flag for Germany Past Weather in Augsburg, Bavaria, Germany — Yesterday and Last 2 Weeks

43 °F

Broken clouds.

Feels Like: 39 °F
Forecast: 38 / 51 °F
Wind: 6 mph from West

Location: Augsburg Airport

Current Time: Oct 21, 2016 at 11:17:33 AM

Latest Report: Oct 21, 2016 at 10:20 AM

Visibility: N/A

Pressure: 29.95 "Hg

Humidity: 87%

Dew Point: 39 °F

Location of AugsburgLocation

Past Weather in Augsburg — Graph


Augsburg Temperature Yesterday

Maximum temperature yesterday: 54 °F (at 2:20 PM)
Minimum temperature yesterday: 43 °F (at 6:50 AM)
Average temperature yesterday: 48 °F

High & Low Weather Summary for the Past Weeks

High66 °F (Oct 16, 3:50 PM)100% (Oct 6, 9:20 AM)30.24 "Hg (Oct 6, 9:20 AM)
Low30 °F (Oct 10, 6:50 AM)47% (Oct 9, 2:20 PM)29.65 "Hg (Oct 14, 8:50 PM)
Average48 °F86%30.06 "Hg
* Reported Oct 6 9:20 AM — Oct 21 9:50 AM, Augsburg, Weather by CustomWeather, © 2016

Note: Actual official high and low records may vary slightly from our data, if they occured in-between our weather recording intervals... More about our weather records


Augsburg Weather History for the Previous 24 Hours

Scroll right to see more
Time TempWeatherWind HumidityBarometerVisibility
9:50 AM
Fri, Oct 21
43 °FPartly sunny.3 mph93%29.95 "HgN/A
9:20 AM41 °FPartly sunny.5 mph100%29.92 "HgN/A
8:50 AM41 °FPartly sunny.5 mph100%29.92 "HgN/A
8:20 AM43 °FPartly sunny.7 mph100%29.92 "HgN/A
7:50 AM43 °FDrizzle. Partly sunny.6 mph100%29.92 "Hg6 mi
7:20 AM43 °FLight rain. Passing clouds.7 mph100%29.89 "Hg5 mi
6:50 AM43 °FLight rain. Passing clouds.8 mph100%29.89 "HgN/A
8:50 PM
Thu, Oct 20
48 °FClear.12 mph66%29.92 "Hg10 mi
8:20 PM48 °FClear.10 mph66%29.92 "Hg10 mi
7:50 PM48 °FClear.6 mph66%29.92 "Hg10 mi
7:20 PM48 °FClear.8 mph66%29.92 "Hg10 mi
6:50 PM48 °FPassing clouds.8 mph66%29.92 "HgN/A
6:20 PM48 °FPassing clouds.9 mph66%29.92 "HgN/A
5:50 PM50 °FSunny.9 mph62%29.92 "Hg10 mi
5:20 PM50 °FScattered showers. Partly sunny.9 mph62%29.92 "HgN/A
4:50 PM50 °FPartly sunny.13 mph62%29.92 "HgN/A
4:20 PM52 °FScattered clouds.15 mph58%29.92 "HgN/A
3:50 PM52 °FPartly sunny.13 mph58%29.92 "HgN/A
3:20 PM52 °FScattered clouds.17 mph58%29.92 "HgN/A
2:50 PM54 °FScattered clouds.14 mph54%29.92 "HgN/A
2:20 PM54 °FScattered clouds.13 mph54%29.92 "HgN/A
1:50 PM50 °FBroken clouds.14 mph58%29.95 "HgN/A
1:20 PM52 °FPartly sunny.14 mph58%29.95 "HgN/A
12:50 PM52 °FPartly sunny.14 mph58%29.95 "HgN/A
12:20 PM50 °FPartly sunny.13 mph62%29.95 "HgN/A
11:50 AM48 °FScattered clouds.13 mph71%29.98 "HgN/A
11:20 AM48 °FBroken clouds.13 mph71%29.98 "HgN/A
Weather by CustomWeather, © 2016

See weather overviewHow to use our weather pages